Torna al catalogo

TIANYI-26

AttivoScienzaSSO
NORAD 56866·PAYLOAD·🇨🇳 China
Questo nome del satellite non è ancora stato confermato da fonti ufficiali.

Lanciato Jun 7, 2023 da Jiuquan Satellite Launch Center

Loading…

Prossimi Passaggi (prossime 24 ore)

TLE

AggiornatoSource: Space-Track

Epoca: Sep 14, 2026, 14:47 UTC

1 56866U 23081W   26257.61618415  .00005416  00000-0  21412-3 0  9998
2 56866  97.2805 318.8204 0011836  61.3154 298.9273 15.25830028181665

Traccia TIANYI-26 in tempo reale con AllMySat

Download on the App Store